Home   Weather   Freital   Past weeks

Flag for Germany Past Weather in Freital, Saxony, Germany — Yesterday and Last 2 Weeks

Now
18 °F

Ice fog.


Feels Like: 18 °F
Forecast: 11 / 27 °F
Wind: 2 mph from North

Location: Dresden-Klotzsche

Current Time: Jan 19, 2017 at 2:04:44 pm

Latest Report: Jan 19, 2017 at 1:50 pm


Visibility: 3 mi

Pressure: 30.63 "Hg

Humidity: 93%

Dew Point: 16 °F

Location of FreitalLocation

Past Weather in Freital — Graph

°F

Freital Temperature Yesterday

Maximum temperature yesterday: 25 °F (at 12:20 am)
Minimum temperature yesterday: 18 °F (at 10:50 pm)
Average temperature yesterday: 22 °F

High & Low Weather Summary for the Past Weeks

 TemperatureHumidityPressure
High41 °F (Jan 13, 6:20 am)100% (Jan 4, 2:50 pm)30.72 "Hg (Jan 4, 2:50 pm)
Low10 °F (Jan 6, 4:50 am)57% (Jan 13, 7:20 am)29.12 "Hg (Jan 13, 5:50 am)
Average26 °F89%30.11 "Hg
* Reported Jan 4 12:20 pm — Jan 19 12:50 pm, Freital, Weather by CustomWeather, © 2017

Note: Actual official high and low records may vary slightly from our data, if they occured in-between our weather recording intervals... More about our weather records

Advertising

Freital Weather History for the Previous 24 Hours

Scroll right to see more
 ConditionsComfort  
Time TempWeatherWind HumidityBarometerVisibility
12:50 pm
Thu, Jan 19
18 °FIce fog.No wind93%30.66 "Hg2 mi
12:20 pm16 °FIce fog.2 mph93%30.66 "Hg2 mi
11:50 am16 °FIce fog.1 mph93%30.66 "Hg2 mi
11:20 am16 °FIce fog.1 mph93%30.66 "Hg2 mi
10:50 am14 °FLight snow. Ice fog.2 mph92%30.66 "Hg2 mi
10:20 am14 °FIce fog.2 mph92%30.66 "Hg1 mi
9:50 am14 °FIce fog.3 mph92%30.66 "Hg1 mi
9:20 am12 °FIce fog.2 mph92%30.66 "Hg1 mi
8:50 am12 °FIce fog.2 mph92%30.66 "Hg1 mi
8:20 am12 °FIce fog.1 mph92%30.66 "Hg1 mi
7:50 am12 °FLight snow. Ice fog.3 mph100%30.66 "Hg1 mi
7:20 am12 °FIce fog.2 mph92%30.66 "Hg1 mi
6:50 am14 °FIce fog.3 mph92%30.66 "Hg1 mi
6:20 am12 °FLight snow. Ice fog.No wind100%30.66 "Hg1 mi
5:50 am14 °FLight snow. Ice fog.2 mph92%30.66 "Hg1 mi
5:20 am14 °FLight snow. Ice fog.2 mph92%30.66 "Hg1 mi
4:50 am14 °FIce fog.2 mph92%30.66 "Hg1 mi
4:20 am14 °FLight snow. Ice fog.5 mph92%30.66 "Hg2 mi
3:50 am14 °FIce fog.6 mph92%30.66 "Hg2 mi
3:20 am14 °FLight snow. Ice fog.2 mph92%30.66 "Hg2 mi
2:50 am14 °FLight snow. Ice fog.5 mph100%30.66 "Hg2 mi
2:20 am16 °FIce fog.6 mph93%30.66 "Hg2 mi
1:50 am16 °FIce fog.5 mph93%30.66 "Hg2 mi
1:20 am16 °FIce fog.3 mph93%30.66 "Hg2 mi
12:50 am16 °FIce fog.3 mph100%30.66 "Hg2 mi
12:20 am18 °FIce fog.5 mph93%30.66 "Hg3 mi
11:50 pm
Wed, Jan 18
18 °FIce fog.5 mph93%30.66 "Hg3 mi
11:20 pm18 °FIce fog.5 mph93%30.69 "Hg3 mi
10:50 pm18 °FIce fog.5 mph93%30.69 "Hg3 mi
10:20 pm19 °FIce fog.5 mph93%30.69 "Hg3 mi
9:50 pm19 °FIce fog.3 mph93%30.69 "Hg3 mi
9:20 pm19 °FIce fog.5 mph93%30.69 "Hg3 mi
8:50 pm19 °FPassing clouds.5 mph93%30.69 "Hg4 mi
8:20 pm21 °FPassing clouds.5 mph86%30.69 "Hg4 mi
7:50 pm21 °FPassing clouds.3 mph93%30.69 "Hg4 mi
7:20 pm21 °FIce fog.3 mph93%30.69 "Hg3 mi
6:50 pm21 °FIce fog.3 mph93%30.69 "Hg3 mi
6:20 pm21 °FIce fog.3 mph93%30.69 "Hg3 mi
5:50 pm21 °FIce fog.5 mph93%30.69 "Hg3 mi
5:20 pm21 °FIce fog.6 mph93%30.69 "Hg3 mi
4:50 pm21 °FPassing clouds.5 mph93%30.69 "Hg4 mi
4:20 pm21 °FPartly sunny.5 mph93%30.69 "Hg4 mi
3:50 pm23 °FPartly sunny.5 mph86%30.69 "Hg4 mi
3:20 pm23 °FPartly sunny.5 mph86%30.69 "Hg4 mi
2:50 pm23 °FPartly sunny.3 mph86%30.69 "Hg4 mi
2:20 pm23 °FPartly sunny.2 mph86%30.69 "Hg4 mi
Weather by CustomWeather, © 2017

See weather overviewHow to use our weather pages